Location: Lafig�re
(44.4503°N, 4.0357°E)
Time: 07:50:25
(UTC+00:00)

Cosmos 1092 Rocket - Pass Details

Date: 30 January 2021
Orbit: 954 x 994 km, 83.0° (Epoch: 08 March)

Event Time Altitude Azimuth Distance (km) Brightness Sun altitude
Rises 19:19:08 0° 238° (WSW) 3,639 7.8 -26.6°
Reaches altitude 10° 19:22:46 10° 260° (W) 2,692 7.3 -27.3°
Maximum altitude 19:26:23 16° 296° (WNW) 2,285 6.6 -27.9°
Drops below altitude 10° 19:30:01 10° 333° (NNW) 2,694 6.6 -28.6°
Sets 19:33:41 0° 355° (N) 3,643 7.1 -29.2°
